Kremmling, CO

5:36 AM MDT on April 23, 2017 (GMT -0600)
Kremmling

Weather History for K20V - July, 2013

Change the Weather History Date:

Sunday, July 7, 2013

  Actual Average Record
Temperature  
Mean Temperature 66 °F -  
Max Temperature 82 °F - 91 °F (2007)
Min Temperature 50 °F - 37 °F (2004)
Degree Days  
Heating Degree Days 0    
Month to date heating degree days  
Cooling Degree Days 1    
Month to date cooling degree days  
Growing Degree Days 16 (Base 50)    
Moisture  
Dew Point 44 °F    
Average Humidity 51    
Maximum Humidity 88    
Minimum Humidity 18    
Precipitation  
Precipitation 0.02 in - 0.47 in (2015)
Sea Level Pressure  
Sea Level Pressure 30.27 in    
Wind  
Wind Speed 4 mph (WNW)    
Max Wind Speed 20 mph    
Max Gust Speed 39 mph    
Visibility 10 miles    
Events Rain , Thunderstorm    
T = Trace of Precipitation, MM = Missing Value Source: NWS Daily Summary

Daily Weather History Graph

Daily Weather History Graph

Search for Another Location

Airport or City:

Trip Planner

Search our weather history database for the weather conditions in past years. The results will help you decide how hot, cold, wet, or windy it might be!

Date:

Astronomy

Jul. 07, 2013 Rise Set
Actual Time 5:43 AM MDT 8:36 PM MDT
Civil Twilight 5:11 AM MDT 9:09 PM MDT
Nautical Twilight 4:30 AM MDT 9:50 PM MDT
Astronomical Twilight 3:43 AM MDT 10:37 PM MDT
Moon 5:22 AM MDT (7/7) 8:02 PM MDT (7/7)
Length of Visible Light 15h 57m
Length of Day
14h 53m
Waning Crescent, 0% of the Moon is Illuminated
Jul 7
Waning Crescent
Jul 8
New
Jul 15
First Quarter
Jul 22
Full
Jul 29
Last Quarter

Hourly Weather History & Observations

Time (MDT) Temp. Dew Point Humidity Pressure Visibility Wind Dir Wind Speed Gust Speed Precip Events Conditions
12:16 AM 62.6 °F 44.6 °F 52% 30.24 in 10.0 mi North 9.2 mph - N/A   Overcast
12:36 AM 59.0 °F 48.2 °F 67% 30.25 in 10.0 mi East 3.5 mph - N/A Rain Light Rain
12:55 AM 59.0 °F 50.0 °F 72% 30.21 in 10.0 mi ENE 11.5 mph - 0.01 in Rain Light Rain
1:16 AM 59.0 °F 46.4 °F 63% 30.25 in 10.0 mi ENE 4.6 mph - N/A   Overcast
1:36 AM 59.0 °F 48.2 °F 67% 30.25 in 10.0 mi Calm Calm - N/A   Overcast
1:56 AM 59.0 °F 50.0 °F 72% 30.26 in 10.0 mi SSE 3.5 mph - N/A   Mostly Cloudy
2:16 AM 55.4 °F 50.0 °F 82% 30.26 in 10.0 mi Calm Calm - N/A   Clear
2:36 AM 55.4 °F 50.0 °F 82% 30.26 in 10.0 mi ENE 3.5 mph - N/A   Scattered Clouds
2:56 AM 55.4 °F 50.0 °F 82% 30.27 in 10.0 mi Calm Calm - N/A   Mostly Cloudy
3:16 AM 53.6 °F 50.0 °F 88% 30.27 in 10.0 mi Calm Calm - N/A   Mostly Cloudy
3:36 AM 53.6 °F 50.0 °F 88% 30.27 in 10.0 mi Calm Calm - N/A   Scattered Clouds
3:56 AM 51.8 °F 48.2 °F 88% 30.27 in 10.0 mi Calm Calm - N/A   Clear
4:16 AM 51.8 °F 48.2 °F 88% 30.28 in 10.0 mi Calm Calm - N/A   Clear
4:35 AM 51.8 °F 46.4 °F 82% 30.29 in 10.0 mi Calm Calm - N/A   Clear
4:56 AM 51.8 °F 46.4 °F 82% 30.29 in 10.0 mi Calm Calm - N/A   Clear
5:16 AM 50.0 °F 46.4 °F 87% 30.29 in 10.0 mi Calm Calm - N/A   Clear
5:36 AM 50.0 °F 46.4 °F 87% 30.30 in 10.0 mi North 3.5 mph - N/A   Clear
5:56 AM 50.0 °F 46.4 °F 87% 30.31 in 10.0 mi Calm Calm - N/A   Clear
6:16 AM 50.0 °F 46.4 °F 87% 30.31 in 10.0 mi West 3.5 mph - N/A   Clear
6:36 AM 50.0 °F 44.6 °F 82% 30.32 in 10.0 mi NNE 3.5 mph - N/A   Clear
6:56 AM 50.0 °F 44.6 °F 82% 30.31 in 10.0 mi Calm Calm - N/A   Clear
7:16 AM 51.8 °F 46.4 °F 82% 30.32 in 10.0 mi Calm Calm - N/A   Clear
7:36 AM 53.6 °F 50.0 °F 88% 30.33 in 10.0 mi Calm Calm - N/A   Clear
7:56 AM 55.4 °F 48.2 °F 77% 30.33 in 10.0 mi Calm Calm - N/A   Clear
8:16 AM 55.4 °F 50.0 °F 82% 30.33 in 10.0 mi Calm Calm - N/A   Clear
8:36 AM 57.2 °F 48.2 °F 72% 30.33 in 10.0 mi WSW 3.5 mph - N/A   Clear
8:56 AM 59.0 °F 50.0 °F 72% 30.34 in 10.0 mi WSW 4.6 mph - N/A   Clear
9:16 AM 60.8 °F 48.2 °F 63% 30.34 in 10.0 mi Calm Calm - N/A   Clear
9:36 AM 60.8 °F 48.2 °F 63% 30.33 in 10.0 mi WSW 3.5 mph - N/A   Clear
9:56 AM 62.6 °F 48.2 °F 59% 30.32 in 10.0 mi Calm Calm - N/A   Clear
10:16 AM 69.8 °F 51.8 °F 53% 30.32 in 10.0 mi NNE 3.5 mph - N/A   Clear
10:36 AM 69.8 °F 46.4 °F 43% 30.31 in 10.0 mi Calm Calm - N/A   Clear
10:56 AM 71.6 °F 48.2 °F 43% 30.31 in 10.0 mi ENE 4.6 mph - N/A   Clear
11:16 AM 71.6 °F 46.4 °F 41% 30.31 in 10.0 mi Calm Calm - N/A   Clear
11:36 AM 73.4 °F 46.4 °F 38% 30.30 in 10.0 mi Calm Calm - N/A   Clear
11:56 AM 77.0 °F 42.8 °F 29% 30.29 in 10.0 mi ESE 3.5 mph - N/A   Clear
12:15 PM 78.8 °F 42.8 °F 28% 30.29 in 10.0 mi West 4.6 mph - N/A   Clear
12:36 PM 78.8 °F 41.0 °F 26% 30.28 in 10.0 mi SE 5.8 mph - N/A   Clear
12:56 PM 78.8 °F 37.4 °F 23% 30.27 in 10.0 mi South 3.5 mph - N/A   Clear
1:15 PM 82.4 °F 35.6 °F 19% 30.26 in 10.0 mi SSE 3.5 mph - N/A   Clear
1:36 PM 80.6 °F 37.4 °F 21% 30.25 in 10.0 mi Calm Calm - N/A   Scattered Clouds
1:55 PM 80.6 °F 33.8 °F 18% 30.25 in 10.0 mi North 4.6 mph - N/A   Mostly Cloudy
2:16 PM 77.0 °F 37.4 °F 24% 30.26 in 10.0 mi North 10.4 mph - N/A Thunderstorm Overcast
2:35 PM 77.0 °F 39.2 °F 26% 30.26 in 10.0 mi North 12.7 mph 16.1 mph N/A   Mostly Cloudy
2:56 PM 73.4 °F 37.4 °F 27% 30.25 in 10.0 mi North 5.8 mph - N/A Rain Light Rain
3:16 PM 77.0 °F 42.8 °F 29% 30.25 in 10.0 mi NNW 3.5 mph - N/A Rain Light Rain
3:36 PM 73.4 °F 44.6 °F 36% 30.25 in 10.0 mi Calm Calm - N/A   Overcast
3:56 PM 78.8 °F 42.8 °F 28% 30.24 in 10.0 mi SE 4.6 mph - N/A   Overcast
4:16 PM 80.6 °F 42.8 °F 26% 30.23 in 10.0 mi SE 3.5 mph - N/A   Scattered Clouds
4:36 PM 78.8 °F 42.8 °F 28% 30.23 in 10.0 mi NW 9.2 mph - N/A   Scattered Clouds
4:56 PM 80.6 °F 33.8 °F 18% 30.22 in 10.0 mi Calm Calm - N/A   Clear
5:16 PM 80.6 °F 35.6 °F 20% 30.22 in 10.0 mi NNW 3.5 mph - N/A   Clear
5:35 PM 78.8 °F 37.4 °F 23% 30.21 in 10.0 mi NNW 6.9 mph - N/A   Clear
5:56 PM 77.0 °F 37.4 °F 24% 30.21 in 10.0 mi NW 8.1 mph - N/A   Clear
6:16 PM 77.0 °F 33.8 °F 21% 30.21 in 10.0 mi NW 8.1 mph - N/A   Clear
6:36 PM 78.8 °F 33.8 °F 20% 30.21 in 10.0 mi WNW 4.6 mph - N/A   Clear
6:55 PM 78.8 °F 33.8 °F 20% 30.19 in 10.0 mi NNE 3.5 mph - N/A   Clear
7:16 PM 78.8 °F 32.0 °F 18% 30.19 in 10.0 mi Calm Calm - N/A   Clear
7:36 PM 78.8 °F 33.8 °F 20% 30.20 in 10.0 mi North 3.5 mph - N/A Thunderstorm Clear
7:56 PM 77.0 °F 35.6 °F 22% 30.21 in 10.0 mi Calm Calm - N/A   Clear
8:16 PM 73.4 °F 35.6 °F 25% 30.21 in 10.0 mi Calm Calm - N/A   Clear
8:36 PM 69.8 °F 44.6 °F 40% 30.22 in 10.0 mi West 5.8 mph - N/A   Clear
8:55 PM 69.8 °F 42.8 °F 38% 30.22 in 10.0 mi Calm Calm - N/A   Clear
9:16 PM 69.8 °F 44.6 °F 40% 30.24 in 10.0 mi West 4.6 mph - N/A   Scattered Clouds
9:35 PM 69.8 °F 41.0 °F 35% 30.25 in 10.0 mi SSW 11.5 mph 17.3 mph N/A   Mostly Cloudy
9:56 PM 69.8 °F 41.0 °F 35% 30.27 in 10.0 mi SSW 18.4 mph 31.1 mph N/A   Overcast
10:16 PM 60.8 °F 46.4 °F 59% 30.32 in 7.0 mi SW 19.6 mph 39.1 mph 0.01 in Rain , Thunderstorm Light Thunderstorms and Rain
10:36 PM 62.6 °F 44.6 °F 52% 30.30 in 10.0 mi SSW 9.2 mph 25.3 mph 0.01 in Rain Rain
10:56 PM 62.6 °F 44.6 °F 52% 30.27 in 10.0 mi SSW 12.7 mph 18.4 mph 0.01 in Rain Light Rain
11:16 PM 59.0 °F 48.2 °F 67% 30.29 in 10.0 mi South 12.7 mph 18.4 mph N/A   Mostly Cloudy
11:36 PM 62.6 °F 44.6 °F 52% 30.31 in 10.0 mi South 3.5 mph - N/A   Scattered Clouds
11:56 PM 60.8 °F 46.4 °F 59% 30.31 in 10.0 mi SSW 3.5 mph - N/A   Clear